SCP
0 0 0 0 0 0 0 0 0 1 1 2 2 2 3 4 4 3 5 8 9 9 8 6 5 5 4 3 3 2 2 2 2 2 2 2 1 1 1 1 1 2 2 1
0 0 0 0 0 0 0 0 1 1 2 2 3 3 4 5 4 3 4 8 10 9 7 5 4 4 3 3 2 2 2 1 1 2 2 2 1 1 1 1 1 2 2 1
0 0 0 0 0 0 0 0 1 1 2 2 3 3 4 5 4 3 4 8 10 9 6 4 3 3 3 2 2 2 1 1 1 1 2 1 1 1 1 1 2 2 2 1
0 0 0 0 0 0 0 1 1 2 2 2 2 3 4 4 3 2 4 7 9 7 5 3 3 3 3 2 1 1 1 1 1 1 1 1 1 2 1 1 1 1 1 2
0 0 0 0 0 0 0 1 1 2 2 1 2 2 3 3 3 2 4 6 6 5 3 2 2 3 2 2 1 1 1 1 1 1 1 1 1 1 1 1 1 1 1 1
0 0 0 0 0 0 0 1 1 2 2 1 1 1 1 2 2 2 3 4 3 3 2 2 2 2 2 1 1 1 1 1 1 1 1 1 1 1 1 1 1 1 1 1
0 0 0 0 1 1 1 1 1 1 1 1 1 1 1 1 2 2 2 2 2 2 2 2 2 2 2 1 1 1 1 1 1 1 1 1 1 1 1 1 1 1 1 1
0 0 0 1 1 1 1 1 1 1 1 1 1 1 1 2 1 1 1 1 1 1 1 2 2 2 2 1 1 0 0 1 1 1 1 1 1 1 1 1 1 1 1 1
0 0 1 1 1 1 1 1 1 1 1 1 1 1 1 1 1 1 1 1 1 1 1 1 2 2 1 1 1 1 1 1 1 1 1 1 1 1 1 1 1 1 1 1
0 0 0 0 1 1 1 1 1 1 1 1 1 1 1 1 1 1 1 1 1 1 1 1 1 1 1 1 1 1 1 1 1 1 1 1 1 1 1 1 0 0 0 0
0 0 0 0 0 1 1 1 0 0 0 1 1 1 1 1 1 1 1 1 1 1 1 1 1 1 1 1 1 1 1 0 0 1 1 1 1 1 0 0 0 0 0 0
0 1 1 0 0 0 0 0 0 0 0 0 0 1 1 1 2 2 2 1 1 1 1 1 1 1 1 0 0 0 0 0 0 0 0 0 0 0 0 0 0 0 0 0
1 1 1 1 0 0 0 0 0 0 0 0 1 1 2 2 2 2 1 1 1 1 1 1 0 0 0 0 0 0 0 0 0 0 0 0 0 0 0 0 0 0 0 0
0 0 0 0 0 0 0 0 0 0 0 0 1 1 2 2 2 2 1 1 1 1 1 0 0 0 0 0 0 0 0 0 0 0 0 0 0 0 0 0 0 0 0 0
0 0 0 0 0 0 0 0 0 0 0 0 1 1 2 3 3 2 1 1 1 1 1 0 0 0 0 0 0 0 0 0 0 0 0 0 0 0 0 0 0 0 0 0
0 0 0 0 0 0 0 0 0 0 0 0 1 1 2 3 3 2 1 0 1 1 1 0 0 0 0 0 0 0 0 0 0 0 0 0 0 0 0 0 0 0 0 0
0 0 0 0 0 0 0 0 0 0 0 0 1 1 1 2 3 2 1 0 1 1 1 1 0 0 0 0 0 0 0 0 0 0 0 0 0 0 0 0 0 0 0 0
0 0 0 0 0 0 0 0 0 0 0 1 1 1 1 1 1 1 1 1 1 1 1 1 0 0 0 0 0 0 0 0 0 0 0 0 0 0 0 0 0 0 0 0
0 0 0 0 0 0 0 0 0 0 0 1 1 1 0 0 1 1 1 1 1 1 1 0 0 0 0 0 0 0 0 0 0 0 0 0 0 0 0 0 0 0 0 0
0 0 0 0 0 0 0 0 0 0 0 1 1 1 0 0 1 1 1 1 1 1 0 0 0 0 0 0 0 0 0 0 0 0 0 0 0 0 0 0 0 0 0 0
0 0 0 0 0 0 0 0 0 0 0 1 1 0 0 0 1 1 1 1 1 0 0 0 0 0 0 0 0 0 0 0 0 0 0 0 0 0 0 0 0 0 1 1
0 0 0 0 0 0 0 0 0 0 0 1 1 0 0 0 1 1 1 1 0 0 0 0 0 0 0 0 0 0 0 0 0 0 0 0 0 0 0 0 0 1 1 1
0 0 1 1 0 0 1 1 1 1 1 1 1 0 0 0 1 1 1 1 0 0 0 0 0 0 0 0 0 0 0 0 0 0 0 0 0 0 0 0 0 1 1 1
0 1 1 1 1 0 1 1 1 1 1 1 1 0 0 0 0 0 1 0 0 0 0 0 0 0 0 0 0 0 0 0 0 0 0 0 0 0 0 1 1 1 1 1
0 1 1 1 1 0 1 1 1 1 1 1 1 1 0 0 0 0 0 0 0 0 0 0 0 0 0 0 0 0 0 0 0 0 0 0 0 0 0 1 1 1 1 1
1 1 1 1 1 0 1 1 1 1 1 1 1 1 0 0 0 0 0 0 0 0 0 0 0 0 0 0 0 0 0 0 0 0 0 0 0 0 0 0 0 0 0 0
1 1 1 1 0 0 1 1 1 1 1 1 1 1 0 0 0 0 0 0 0 0 0 0 0 0 0 0 0 0 0 0 0 0 0 0 0 0 0 0 0 0 0 0
Wind_Speed
12 12 11 11 12 11 8 7 7 6 5 4 3 3 2 3 2 1 2 2 2 2 2 2 1 1 1 1 1 1 1 1 2 2 3 3 3 3 3 3 3 2 3 4
11 10 9 10 10 10 8 7 7 6 5 5 5 5 4 3 2 1 1 1 1 2 2 1 1 1 0 1 1 1 1 2 2 2 2 3 3 3 3 2 3 3 3 4
9 10 8 6 8 8 8 8 7 6 6 5 6 4 2 1 3 3 2 1 1 2 2 1 1 1 1 1 1 1 1 2 2 2 2 3 3 2 2 2 3 3 4 3
8 8 5 4 6 7 7 8 11 10 10 9 7 4 5 4 4 4 3 2 2 2 2 1 1 1 0 1 1 1 1 2 2 2 2 2 2 2 2 2 3 3 4 3
6 7 4 4 8 8 6 5 11 11 10 10 9 4 5 6 6 4 3 3 2 2 2 2 1 1 1 1 1 1 1 2 2 2 2 2 2 2 2 3 3 4 3 2
5 7 5 6 8 6 3 1 10 11 10 10 10 5 4 6 5 4 3 3 2 2 2 2 1 1 1 0 1 1 1 1 1 1 3 3 2 2 3 3 3 4 3 2
6 6 3 8 11 8 4 6 9 9 9 9 8 6 4 4 4 3 3 3 2 2 2 2 1 1 0 0 1 1 1 1 1 1 2 2 2 2 3 3 4 4 3 3
5 5 4 9 9 7 4 6 7 8 7 7 7 5 4 4 3 2 2 2 2 2 2 1 1 1 1 1 1 1 1 1 1 1 3 2 2 3 3 3 3 4 3 3
4 4 4 5 4 3 5 6 7 8 7 6 6 5 4 3 3 1 1 1 2 2 2 2 1 1 1 1 1 1 1 2 2 2 2 2 2 2 2 2 2 3 2 2
6 5 7 6 5 5 6 7 8 8 7 6 5 5 3 3 2 1 1 2 2 2 2 2 1 1 1 0 1 1 1 2 2 2 2 2 1 2 2 2 2 3 3 3
8 7 8 8 10 9 9 8 9 8 7 5 4 4 2 1 1 1 1 2 2 2 2 2 1 1 1 1 1 1 1 2 3 3 2 1 1 1 1 2 1 1 2 2
6 7 8 10 10 10 9 8 8 8 7 4 3 3 2 1 1 1 2 2 2 2 2 2 1 1 1 1 1 1 1 2 2 2 2 1 0 1 2 1 1 1 1 1
7 9 9 10 9 8 8 8 8 7 5 3 3 2 1 1 1 2 2 2 2 2 2 1 1 1 1 1 1 1 1 2 3 3 3 2 1 0 1 1 1 2 2 2
7 8 9 8 8 8 7 7 7 6 3 2 2 1 0 1 2 2 2 2 2 2 1 1 1 1 1 1 1 1 2 1 3 3 2 2 2 1 0 0 1 1 0 1
7 8 9 8 7 6 6 6 5 4 2 2 1 1 1 1 2 2 1 2 2 1 1 1 1 1 0 0 1 2 2 2 2 2 3 3 2 1 2 2 2 2 2 2
8 7 7 7 7 7 6 5 5 3 2 2 1 0 1 2 2 2 2 2 2 1 1 1 1 1 0 1 1 1 1 2 3 3 3 3 2 2 3 3 3 3 3 3
7 6 6 6 7 7 6 5 3 2 2 1 1 1 2 2 2 2 2 1 1 1 1 1 1 1 1 1 2 3 1 1 2 2 2 2 3 3 3 3 3 2 3 3
6 6 6 6 6 6 6 4 3 2 2 2 2 3 2 2 2 2 2 1 1 1 1 1 1 1 1 1 2 3 2 0 1 1 2 2 3 3 3 4 4 4 3 3
5 5 5 5 5 5 4 3 3 2 2 2 2 2 3 2 2 2 2 2 1 2 2 2 2 2 2 2 3 2 2 1 1 1 1 2 2 3 3 4 4 4 4 4
5 5 4 4 3 3 3 2 2 2 2 2 1 2 2 3 3 2 2 1 1 2 3 2 1 2 2 1 2 4 2 1 2 2 2 2 2 3 4 4 5 5 5 5
4 5 5 4 4 4 3 2 2 2 2 2 2 2 2 2 3 2 2 2 2 2 3 2 1 2 1 2 1 3 2 2 2 3 3 3 4 4 4 5 5 5 5 5
4 4 5 3 3 4 3 2 3 3 3 2 2 3 3 3 3 2 2 1 3 3 2 2 1 1 2 3 2 1 1 2 2 2 3 3 3 4 4 5 5 5 5 5
4 4 4 4 3 4 4 4 3 3 2 2 3 3 3 3 2 2 3 3 3 4 2 1 2 2 1 2 2 1 2 2 2 2 2 3 3 4 4 5 4 5 5 5
4 3 3 4 4 4 4 4 3 2 3 3 3 3 3 2 2 2 3 4 5 5 2 3 3 2 2 2 2 1 1 1 2 2 3 3 3 3 4 4 4 5 5 6
4 3 4 4 4 4 4 4 4 3 4 3 3 3 2 2 2 3 4 6 7 6 4 4 4 3 3 2 1 0 1 2 3 3 3 3 3 4 4 4 4 5 5 5
4 4 4 4 4 4 4 4 4 3 3 3 2 2 2 2 3 4 4 6 7 5 4 4 5 4 3 2 1 1 1 2 2 2 3 2 3 3 4 4 5 4 5 5
5 5 4 5 4 4 5 4 4 4 3 3 3 3 3 3 4 4 4 5 5 5 5 4 5 4 3 2 1 2 1 1 2 2 2 3 3 3 4 5 4 4 4 5
Wind_Direction
295 291 296 306 312 320 319 315 311 319 336 5 350 343 17 8 9 109 114 104 94 105 99 95 104 135 138 159 161 149 217 242 233 238 245 252 255 257 264 265 264 264 274 275
298 296 299 309 323 330 330 331 333 344 356 18 8 8 29 7 359 21 72 89 89 97 97 81 84 102 144 181 172 171 241 257 254 250 264 268 260 252 255 265 276 276 276 279
300 311 311 319 346 354 350 353 352 356 5 12 348 345 38 40 15 15 13 35 101 107 102 102 112 141 197 195 185 200 238 263 262 257 273 284 281 279 283 284 286 286 280 279
303 311 309 340 13 9 5 15 26 23 14 4 353 11 44 34 32 14 4 50 82 99 106 119 138 151 177 228 230 227 236 253 258 269 289 286 282 295 304 299 290 288 283 277
307 302 298 341 6 6 359 10 29 17 8 6 354 15 39 38 32 27 29 70 92 119 140 145 148 164 175 244 254 211 229 258 267 292 306 304 302 311 305 295 289 284 280 278
297 302 312 342 358 353 327 357 22 6 353 350 348 341 9 19 17 30 48 73 98 124 131 130 138 170 189 233 256 256 259 278 292 314 311 311 322 311 305 296 291 285 283 280
293 289 298 1 0 357 3 354 345 343 338 347 351 343 343 355 15 42 59 87 105 116 114 120 152 167 208 238 261 280 293 297 269 285 291 292 303 292 290 291 291 287 282 275
305 295 316 4 7 15 351 331 329 332 340 347 342 341 351 3 16 34 63 91 105 104 96 105 139 162 154 37 339 320 339 340 332 302 304 331 304 289 286 289 295 291 284 286
309 299 320 350 11 356 334 328 329 331 333 329 330 333 347 6 19 10 59 83 88 95 106 102 112 122 91 27 334 334 356 350 337 326 318 304 297 303 304 299 295 306 328 347
306 315 330 340 357 348 336 329 328 326 327 329 332 332 349 5 11 2 57 95 105 112 111 100 89 87 79 14 345 347 349 342 322 314 307 307 297 301 311 336 355 359 8 5
295 314 325 328 335 332 330 331 327 322 327 332 333 327 343 4 15 40 76 101 110 101 102 108 116 98 90 46 17 4 2 337 312 304 298 305 324 332 327 17 36 11 356 355
302 318 315 311 317 320 322 324 321 323 328 332 331 325 357 13 26 82 95 103 114 123 120 118 111 96 81 75 62 23 335 321 310 310 302 289 324 18 58 131 128 169 220 275
296 299 300 304 315 323 320 320 320 322 324 335 334 331 23 104 87 95 111 117 124 122 122 129 140 111 95 96 76 2 323 320 312 316 314 310 293 355 71 95 266 287 278 276
304 308 310 313 316 319 319 319 321 320 330 338 336 336 29 119 125 137 129 125 123 120 125 135 138 100 89 63 326 290 290 291 292 301 313 328 340 2 34 45 43 48 288 235
309 307 305 311 314 317 312 312 312 314 332 338 337 16 112 121 132 143 122 114 107 123 115 105 103 104 278 304 302 292 293 308 306 316 325 333 340 345 19 35 42 49 50 57
300 297 305 313 314 314 315 314 315 319 321 318 320 123 141 144 149 137 111 112 130 113 66 56 52 38 347 7 316 278 262 302 306 310 320 329 351 17 24 24 31 33 38 39
299 306 311 309 308 311 311 311 314 307 293 282 220 165 159 137 140 137 124 132 135 110 85 69 23 355 18 320 291 285 252 197 247 302 324 354 8 14 17 15 15 28 60 58
291 295 296 295 302 308 310 321 334 329 301 267 213 174 155 143 172 162 154 153 157 126 101 80 40 332 319 302 304 306 309 354 129 8 6 27 16 8 12 14 14 22 37 42
311 312 309 310 312 306 313 325 323 306 286 256 201 169 157 166 178 172 180 200 187 135 99 66 25 296 299 355 340 290 302 356 61 46 27 51 19 8 17 19 20 22 27 31
325 326 324 321 316 313 319 321 309 291 285 271 196 168 161 168 180 186 188 198 147 121 125 115 199 273 295 22 329 300 316 358 10 37 44 37 19 19 27 23 25 28 30 31
327 329 328 330 330 320 311 316 299 281 273 241 211 194 178 182 192 191 197 170 122 110 116 124 239 282 305 343 275 296 328 13 22 36 34 31 28 29 28 26 26 28 29 29
325 325 326 328 324 318 317 306 275 260 240 210 201 192 181 197 197 186 179 135 129 122 151 169 195 17 3 325 286 294 349 13 26 43 46 39 33 28 29 28 25 25 30 36
319 318 322 321 308 301 294 284 270 259 234 216 211 206 199 202 208 196 171 154 146 146 186 118 105 94 7 294 303 345 7 21 33 44 50 47 40 40 37 31 27 29 36 39
309 309 311 308 299 292 285 284 286 267 240 236 215 210 206 197 206 197 141 130 130 147 160 130 153 172 250 267 299 341 347 7 36 43 45 50 53 50 45 39 34 39 43 44
294 291 288 288 280 275 274 274 270 253 236 226 209 199 204 194 182 168 148 144 150 163 163 167 193 209 241 265 275 353 35 35 44 48 51 43 42 48 51 45 41 41 42 48
274 263 265 263 264 266 261 255 250 238 234 232 209 190 199 182 177 161 155 160 165 184 200 178 181 204 229 235 193 148 129 125 105 79 63 55 47 47 51 48 48 47 51 54
257 253 251 253 255 257 263 257 252 246 232 227 222 197 197 192 175 166 173 173 173 190 204 196 185 188 198 197 163 134 128 106 94 81 81 77 64 63 65 60 56 54 53 58